Tracking 18850 objects as of 22-Nov-2017
HD Live streaming from Space Station
objects crossing your sky now

FENGYUN 1C DEB

Track FENGYUN 1C DEB now!
10-day predictions


NORAD ID: 40999
Int'l Code: 1999-025EXD
Perigee: 853.3 km
Apogee: 948.3 km
Inclination: 99.3 °
Period: 102.9 minutes
Semi major axis: 7271 km
RCS: Unknown
Launch date: May 10, 1999
Source: People's Republic of China (PRC)
Launch site: Taiyaun Space Center, China (TSC)

Note: This is SATELLITE DEBRIS
aabbcc
Your satellite tracking list
Your tracking list is empty




NASA's NSSDC Master Catalog

Two Line Element Set (TLE):
1 40999U 99025EXD 17319.20454876  .00000085  00000-0  87281-4 0  9996
2 40999  99.2600 303.6466 0065336  83.3537 277.5057 14.00039903402478
Source of the keplerian elements: AFSPC